When you browse on this site, cookies collect data to enhance your experience and personalize the content and advertising you see.
Visit our Privacy Policy to learn more. By continuing to use the site, you agree to this use of cookies and data.

Meteo pe oră la Mochudi

Astăzi, 22 Septembrie, Marţi

Timp Temperatura Precipitaţii Vânt Presiune Umiditate
00:00 +23°C° 0 mm 5 m/s 682 mmHg 17%
01:00 +22°C° 0 mm 5 m/s 682 mmHg 27%
02:00 +21°C° 0 mm 4 m/s 682 mmHg 34%
03:00 +19°C° 0 mm 5 m/s 682 mmHg 44%
04:00 +17°C° 0 mm 5 m/s 683 mmHg 54%
05:00 +16°C° 0 mm 6 m/s 683 mmHg 63%
06:00 +16°C° 0 mm 6 m/s 684 mmHg 63%
07:00 +16°C° 0 mm 7 m/s 684 mmHg 63%
08:00 +16°C° 0 mm 8 m/s 686 mmHg 62%
09:00 +17°C° 0 mm 8 m/s 686 mmHg 59%
10:00 +18°C° 0 mm 8 m/s 686 mmHg 56%
11:00 +18°C° 0 mm 8 m/s 686 mmHg 54%
12:00 +21°C° 0 mm 7 m/s 686 mmHg 49%
13:00 +23°C° 0 mm 7 m/s 686 mmHg 45%
14:00 +24°C° 0 mm 7 m/s 685 mmHg 41%
15:00 +24°C° 0 mm 7 m/s 685 mmHg 40%
16:00 +24°C° 0 mm 7 m/s 685 mmHg 40%
17:00 +24°C° 0 mm 7 m/s 685 mmHg 40%
18:00 +22°C° 0 mm 6 m/s 685 mmHg 44%
19:00 +21°C° 0 mm 5 m/s 686 mmHg 49%
20:00 +19°C° 0 mm 4 m/s 686 mmHg 53%
21:00 +18°C° 0 mm 4 m/s 686 mmHg 57%
22:00 +17°C° 0 mm 4 m/s 686 mmHg 60%
23:00 +15°C° 0 mm 4 m/s 687 mmHg 63%

Mâine, 23 Septembrie, Miercuri

Timp Temperatura Precipitaţii Vânt Presiune Umiditate
00:00 +14°C° 0 mm 4 m/s 686 mmHg 66%
01:00 +14°C° 0 mm 4 m/s 685 mmHg 69%
02:00 +13°C° 0 mm 4 m/s 685 mmHg 72%
03:00 +12°C° 0 mm 4 m/s 684 mmHg 74%
04:00 +12°C° 0 mm 4 m/s 684 mmHg 76%
05:00 +12°C° 0 mm 3 m/s 684 mmHg 78%
06:00 +13°C° 0 mm 4 m/s 684 mmHg 73%
07:00 +14°C° 0 mm 4 m/s 685 mmHg 67%
08:00 +15°C° 0 mm 5 m/s 686 mmHg 62%
09:00 +19°C° 0 mm 5 m/s 686 mmHg 53%
10:00 +22°C° 0 mm 5 m/s 686 mmHg 43%
11:00 +26°C° 0 mm 5 m/s 686 mmHg 34%
12:00 +28°C° 0 mm 4 m/s 686 mmHg 30%
13:00 +29°C° 0 mm 4 m/s 685 mmHg 26%
14:00 +31°C° 0 mm 3 m/s 684 mmHg 21%
15:00 +31°C° 0 mm 3 m/s 684 mmHg 21%
16:00 +31°C° 0 mm 3 m/s 683 mmHg 20%
17:00 +31°C° 0 mm 3 m/s 683 mmHg 20%
18:00 +29°C° 0 mm 3 m/s 683 mmHg 24%
19:00 +26°C° 0 mm 3 m/s 683 mmHg 29%
20:00 +24°C° 0 mm 3 m/s 683 mmHg 33%
21:00 +22°C° 0 mm 3 m/s 683 mmHg 35%
22:00 +21°C° 0 mm 3 m/s 683 mmHg 38%
23:00 +20°C° 0 mm 3 m/s 683 mmHg 41%

Poimâine, 24 Septembrie, Joi

Timp Temperatura Precipitaţii Vânt Presiune Umiditate
00:00 +19°C° 0 mm 2 m/s 682 mmHg 43%
01:00 +19°C° 0 mm 2 m/s 682 mmHg 46%
02:00 +18°C° 0 mm 2 m/s 681 mmHg 49%
03:00 +17°C° 0 mm 2 m/s 681 mmHg 51%
04:00 +16°C° 0 mm 2 m/s 681 mmHg 53%
05:00 +16°C° 0 mm 2 m/s 681 mmHg 56%
06:00 +17°C° 0 mm 3 m/s 682 mmHg 51%
07:00 +19°C° 0 mm 4 m/s 682 mmHg 46%
08:00 +21°C° 0 mm 4 m/s 683 mmHg 41%
09:00 +25°C° 0 mm 4 m/s 683 mmHg 35%
10:00 +29°C° 0 mm 4 m/s 684 mmHg 28%
11:00 +33°C° 0 mm 4 m/s 684 mmHg 21%
12:00 +34°C° 0 mm 4 m/s 683 mmHg 19%
13:00 +36°C° 0 mm 4 m/s 682 mmHg 16%
14:00 +37°C° 0 mm 3 m/s 681 mmHg 14%
15:00 +37°C° 0 mm 3 m/s 681 mmHg 14%
16:00 +37°C° 0 mm 2 m/s 680 mmHg 14%
17:00 +37°C° 0 mm 2 m/s 680 mmHg 14%
18:00 +34°C° 0 mm 2 m/s 680 mmHg 17%
19:00 +30°C° 0 mm 2 m/s 680 mmHg 20%
20:00 +27°C° 0 mm 2 m/s 679 mmHg 23%
21:00 +26°C° 0 mm 2 m/s 679 mmHg 24%
22:00 +25°C° 0 mm 2 m/s 679 mmHg 25%
23:00 +24°C° 0 mm 3 m/s 679 mmHg 26%

25 Septembrie, Vineri

Timp Temperatura Precipitaţii Vânt Presiune Umiditate
00:00 +23°C° 0 mm 2 m/s 679 mmHg 27%
01:00 +21°C° 0 mm 2 m/s 678 mmHg 28%
02:00 +20°C° 0 mm 2 m/s 678 mmHg 30%
03:00 +19°C° 0 mm 2 m/s 678 mmHg 31%
04:00 +19°C° 0 mm 1 m/s 678 mmHg 33%
05:00 +18°C° 0 mm 1 m/s 678 mmHg 35%
06:00 +20°C° 0 mm 1 m/s 679 mmHg 31%
07:00 +22°C° 0 mm 1 m/s 680 mmHg 28%
08:00 +25°C° 0 mm 1 m/s 681 mmHg 24%
09:00 +28°C° 0 mm 2 m/s 681 mmHg 20%
10:00 +31°C° 0 mm 3 m/s 681 mmHg 17%
11:00 +35°C° 0 mm 3 m/s 681 mmHg 13%
12:00 +37°C° 0 mm 4 m/s 680 mmHg 12%
13:00 +38°C° 0 mm 4 m/s 679 mmHg 11%
14:00 +41°C° 0 mm 4 m/s 679 mmHg 10%
15:00 +41°C° 0 mm 4 m/s 678 mmHg 10%
16:00 +40°C° 0 mm 4 m/s 677 mmHg 11%
17:00 +40°C° 0 mm 4 m/s 676 mmHg 11%
18:00 +36°C° 0 mm 4 m/s 676 mmHg 13%
19:00 +33°C° 0 mm 4 m/s 676 mmHg 15%
20:00 +30°C° 0 mm 3 m/s 676 mmHg 17%
21:00 +29°C° 0 mm 3 m/s 676 mmHg 19%
22:00 +28°C° 0 mm 2 m/s 676 mmHg 21%
23:00 +27°C° 0 mm 1 m/s 676 mmHg 22%

26 Septembrie, Sâmbătă

Timp Temperatura Precipitaţii Vânt Presiune Umiditate
00:00 +26°C° 0 mm 1 m/s 675 mmHg 24%
01:00 +24°C° 0 mm 1 m/s 675 mmHg 26%
02:00 +23°C° 0 mm 1 m/s 674 mmHg 27%
03:00 +23°C° 0 mm 1 m/s 674 mmHg 27%
04:00 +23°C° 0 mm 2 m/s 674 mmHg 28%
05:00 +21°C° 0 mm 3 m/s 674 mmHg 28%
06:00 +24°C° 0 mm 3 m/s 675 mmHg 25%
07:00 +26°C° 0 mm 3 m/s 676 mmHg 23%
08:00 +28°C° 0 mm 3 m/s 677 mmHg 21%
09:00 +30°C° 0 mm 3 m/s 677 mmHg 17%
10:00 +34°C° 0 mm 4 m/s 678 mmHg 13%
11:00 +37°C° 0 mm 5 m/s 678 mmHg 10%
12:00 +37°C° 0 mm 5 m/s 677 mmHg 9%
13:00 +39°C° 0 mm 6 m/s 677 mmHg 7%
14:00 +40°C° 0 mm 7 m/s 677 mmHg 6%
15:00 +39°C° 0 mm 7 m/s 676 mmHg 5%
16:00 +38°C° 0 mm 7 m/s 676 mmHg 5%
17:00 +36°C° 0 mm 6 m/s 676 mmHg 4%
18:00 +32°C° 0 mm 6 m/s 676 mmHg 5%
19:00 +28°C° 0 mm 5 m/s 676 mmHg 6%
20:00 +25°C° 0 mm 4 m/s 676 mmHg 8%
21:00 +23°C° 0 mm 4 m/s 677 mmHg 8%
22:00 +22°C° 0 mm 4 m/s 677 mmHg 8%
23:00 +20°C° 0 mm 4 m/s 677 mmHg 9%

27 Septembrie, Duminică

Timp Temperatura Precipitaţii Vânt Presiune Umiditate
00:00 +19°C° 0 mm 4 m/s 677 mmHg 10%
01:00 +18°C° 0 mm 4 m/s 677 mmHg 11%
02:00 +17°C° 0 mm 4 m/s 676 mmHg 12%
03:00 +14°C° 0 mm 3 m/s 676 mmHg 14%
04:00 +13°C° 0 mm 3 m/s 676 mmHg 15%
05:00 +13°C° 0 mm 2 m/s 676 mmHg 17%
06:00 +14°C° 0 mm 3 m/s 677 mmHg 15%
07:00 +17°C° 0 mm 3 m/s 678 mmHg 13%
08:00 +20°C° 0 mm 4 m/s 678 mmHg 12%
09:00 +24°C° 0 mm 3 m/s 679 mmHg 10%
10:00 +27°C° 0 mm 3 m/s 679 mmHg 8%
11:00 +30°C° 0 mm 3 m/s 679 mmHg 7%
12:00 +32°C° 0 mm 2 m/s 679 mmHg 6%
13:00 +35°C° 0 mm 2 m/s 678 mmHg 5%
14:00 +36°C° 0 mm 1 m/s 678 mmHg 4%
15:00 +35°C° 0 mm 1 m/s 678 mmHg 3%
16:00 +35°C° 0 mm 1 m/s 677 mmHg 3%
17:00 +34°C° 0 mm 1 m/s 677 mmHg 3%
18:00 +31°C° 0 mm 1 m/s 677 mmHg 4%
19:00 +27°C° 0 mm 2 m/s 677 mmHg 5%
20:00 +24°C° 0 mm 2 m/s 677 mmHg 6%
21:00 +21°C° 0 mm 2 m/s 677 mmHg 7%
22:00 +21°C° 0 mm 1 m/s 677 mmHg 8%
23:00 +20°C° 0 mm 1 m/s 678 mmHg 9%
Arată mai mult